Vertical_Velocity
1 1 1 -0 -0 0 1 1 1 2 2 1 1 0 0 0 0 -0 -0 0 0 0 -0 -0 0 1 1 1 -0 0 -0 -1 -2 -1 -1 -1 -0 0 -0 -1 -2 0 0 -2 -2 -3 -2
1 1 0 0 1 1 1 1 1 0 1 0 -0 -0 1 -0 0 0 -1 0 0 -1 -1 -0 0 -0 0 1 -0 -1 -1 -1 -1 -1 -2 -1 -0 -1 -1 -1 -2 -1 0 0 0 -1 -3
1 -0 0 0 0 0 1 0 0 0 1 -0 -0 -0 0 0 0 -1 0 -1 -2 -1 -0 0 0 -1 -2 -1 -1 -0 -1 -0 -0 -2 -2 -1 -2 -1 -0 -0 -1 -2 -1 -0 -1 -1 -2
1 1 1 1 0 0 -0 -0 -0 0 1 1 1 0 -1 1 0 1 0 -0 -0 -1 -0 0 -2 -0 -1 -1 -1 -2 -1 -0 -1 -1 -0 -1 -2 -1 -2 -2 -1 -1 -2 -3 -2 -2 -1
0 0 1 -0 -0 -0 -1 -0 -1 -0 -1 -1 -1 0 1 0 0 -0 -0 0 -0 -1 -0 -1 -0 -1 -1 -1 -2 0 1 -1 -0 0 1 -0 -1 -1 -1 -1 -2 -1 -0 -1 -4 -2 -2
-1 -1 -1 -1 -2 -1 -1 -2 -2 -2 -0 -1 -1 -1 -2 -2 -1 -0 -0 0 -0 -0 -1 -1 -1 -0 -0 -1 0 -1 -1 -1 -0 0 -1 -0 -1 -1 -1 -1 -1 -1 -2 -2 -1 -1 -1
-1 -0 -1 -2 -2 -2 -2 -2 -2 -2 -2 -0 -0 -1 -1 -1 -1 -1 -1 -1 -1 -0 0 1 -0 -0 0 1 -0 -0 -0 0 1 1 -0 0 -1 -1 -1 -1 -2 -2 -2 -2 0 1 1
-1 -1 -1 -1 -1 -1 -1 -1 -2 -2 -1 -1 -1 -1 -0 -0 -1 -1 0 0 -1 -1 -0 -0 -0 -0 -0 -1 -1 -2 -1 -0 -0 -0 0 -0 0 0 -1 -1 -1 -2 -2 -1 -8 -1 5
0 0 -1 -0 0 0 0 -0 -1 -1 -1 -1 -1 -0 -0 0 0 0 -0 1 1 -0 -1 -0 -1 -2 -1 -1 -1 -1 -1 -1 -1 -1 -0 0 -0 -2 -2 -1 -5 -3 -1 -0 -2 2 -6
1 -1 0 0 -0 -1 -1 -1 -1 -1 -1 -1 -1 -2 -2 -2 -3 -1 -1 -1 -1 -1 -1 -1 -1 -0 -1 -1 -1 -1 -1 -2 -2 -1 -1 -1 -1 -1 -2 -2 -1 -3 -2 -1 1 0 -5
-0 1 0 -0 1 1 -1 -0 0 -0 -0 -1 -1 -1 -1 0 -1 -2 -1 -2 -1 -3 -4 -3 -2 -1 -0 -1 -0 0 -1 -1 -2 -1 -1 -2 -1 -1 -1 -2 -3 -4 -1 -2 -2 2 1
-1 -0 0 0 -0 0 1 -0 0 1 1 0 1 -1 -2 -1 -1 -0 -0 -0 -1 -2 -3 -2 -1 -1 -1 -1 -1 -1 -2 -1 -2 -1 -1 -2 -2 -2 -2 -3 -2 -3 -7 -3 -3 0 1
-0 1 0 0 0 0 0 0 -1 -0 -0 0 -2 -2 -2 -1 -1 -1 -2 -2 -1 -2 -3 -2 -2 -1 -1 -1 -0 -1 -1 -1 -3 -4 1 -1 -2 -1 -1 -1 0 -5 -7 -8 -6 -5 -1
-1 -0 -0 0 0 0 -1 -1 -0 -0 -1 -1 -1 -0 -1 -0 -0 1 1 0 0 -1 -1 -0 -0 -1 -1 -0 1 -1 -1 -1 -2 -2 -2 2 1 -1 2 -1 -3 0 0 -6 -24 -14 -5
0 1 -0 -1 -0 -0 -1 -0 1 1 1 0 -0 -2 -2 -2 -1 -0 0 -0 -1 -1 -0 -0 -0 0 0 -1 -1 -1 -1 -2 0 0 -4 -7 12 -2 -4 1 -5 0 1 -0 -9 3 -14
-3 -0 1 1 -0 -1 -0 -1 -0 1 1 0 2 1 -0 -0 -1 -1 0 -0 -2 0 -0 -1 1 1 -1 -2 -2 -4 2 -1 -1 -4 -1 -2 -6 4 -0 0 2 -0 0 -6 -2 -15 -27
-2 -2 -0 1 2 -0 -2 -1 -0 -1 0 1 -0 -0 1 -0 1 -0 1 1 1 0 -0 -1 0 -4 -0 -3 -1 -1 -2 -4 2 -3 -0 -6 8 6 0 0 -0 3 3 2 0 2 -6
-1 -1 -1 -0 1 -2 -1 -1 -1 -1 -0 -2 -0 -1 -1 -1 1 0 2 -0 3 1 -1 -3 -2 -2 -1 -1 -0 -2 -0 -2 -4 -4 0 0 -9 1 6 3 -3 3 3 0 2 -2 2
2 -1 -2 -0 -1 -4 -1 -2 -2 -2 -2 0 -1 -1 2 -1 -2 2 1 3 -2 2 1 2 -2 1 2 3 -12 2 4 3 -2 -1 -7 -0 -4 -8 1 3 -6 -1 9 5 -4 0 16
-0 1 1 -0 -1 0 -1 -0 -1 -2 -1 -1 -3 -3 0 -1 -2 -2 -0 -0 -3 1 -2 -1 -1 1 -3 1 -0 -10 -2 -3 4 -1 -1 -9 -1 3 -7 1 -13 2 7 -1 3 2 -7
-0 0 1 1 2 0 -0 0 0 -1 -0 -3 1 -5 -3 -4 0 -1 -2 1 5 -4 -1 1 2 2 -4 -5 -1 -1 4 1 2 2 1 -4 -12 -8 14 3 -2 -1 5 12 2 6 6
1 1 -0 0 -0 -0 -0 1 -1 -2 -1 0 -8 -2 5 1 3 3 0 13 1 5 -4 7 -3 -3 1 1 -6 -1 -1 5 7 9 -0 3 -4 1 0 -1 -6 -18 21 -1 10 2 5
-1 -3 -1 -1 0 -0 2 2 1 0 2 -1 7 -6 -6 6 6 3 7 6 3 -0 4 2 1 -3 3 1 -8 3 -1 4 3 2 18 2 4 6 -29 -5 -9 -5 2 3 -2 10 6
-0 -1 1 1 1 -1 -1 3 -0 3 3 1 -3 -2 -3 -3 3 6 1 -5 3 -1 -7 7 2 -4 8 2 -2 0 4 1 2 7 7 -2 8 9 -15 0 -29 1 -8 -1 -11 12 -5
-1 1 3 2 -0 2 3 1 -2 1 -0 -2 0 -2 -5 -3 0 13 -8 -2 4 0 -3 -5 12 4 8 3 -2 -4 4 2 11 5 8 4 9 0 2 2 -16 20 7 4 -3 -6 6
1 2 -0 -0 -1 -1 1 3 7 8 3 -0 1 -6 -5 -9 24 -1 0 -4 2 1 2 3 2 2 3 2 1 -5 -12 -0 -8 -4 9 4 4 7 10 5 0 -2 -4 2 -3 -12 2
-0 -1 0 1 2 1 1 1 0 3 7 -4 6 2 -6 -14 21 -1 4 2 2 -1 -4 4 -2 -2 3 3 -1 -1 -7 6 -7 -5 -8 0 2 0 6 -0 -12 4 0 -3 -2 -10 -5
-0 -1 0 1 1 0 1 2 2 2 2 0 4 7 1 -9 0 -0 4 1 1 3 -1 -0 -6 11 -4 -1 4 4 -5 -2 -3 -1 -2 1 -3 0 -2 3 -12 -2 -1 13 -0 -3 2
-0 2 1 0 2 2 2 0 2 3 3 -7 -12 9 3 -13 -14 1 2 11 -1 3 -3 -8 -1 1 -2 3 6 -0 6 1 5 -11 14 -1 7 -2 17 -1 2 -7 -3 0 -2 -1 0
Height
5850 5851 5853 5854 5856 5857 5858 5858 5859 5860 5860 5860 5860 5860 5860 5860 5861 5862 5862 5863 5863 5863 5863 5862 5862 5861 5860 5859 5858 5857 5855 5854 5852 5849 5847 5844 5842 5839 5836 5833 5830 5827 5825 5822 5818 5814 5810
5853 5855 5857 5858 5859 5860 5861 5861 5862 5862 5862 5863 5863 5863 5863 5863 5864 5864 5865 5865 5865 5865 5865 5864 5862 5861 5861 5860 5859 5857 5856 5854 5852 5850 5847 5845 5842 5839 5836 5833 5830 5826 5823 5820 5817 5813 5809
5856 5857 5859 5860 5862 5862 5863 5864 5864 5864 5864 5865 5865 5865 5866 5866 5867 5867 5867 5867 5867 5867 5866 5865 5863 5862 5861 5861 5859 5857 5856 5854 5852 5850 5847 5844 5841 5839 5835 5832 5829 5825 5822 5818 5815 5812 5808
5858 5859 5860 5862 5863 5864 5865 5865 5866 5866 5866 5866 5867 5867 5868 5868 5868 5868 5868 5868 5868 5868 5866 5865 5864 5862 5861 5860 5858 5857 5855 5853 5851 5849 5846 5843 5840 5837 5834 5831 5827 5824 5820 5817 5812 5809 5806
5859 5860 5861 5862 5863 5864 5866 5866 5867 5867 5868 5868 5868 5868 5868 5868 5869 5869 5869 5868 5867 5867 5866 5864 5863 5862 5861 5859 5857 5855 5854 5852 5850 5847 5844 5842 5839 5836 5833 5829 5827 5823 5818 5814 5810 5806 5803
5860 5861 5862 5863 5864 5865 5866 5867 5867 5868 5868 5868 5869 5869 5869 5869 5869 5869 5868 5868 5867 5866 5865 5864 5863 5863 5860 5858 5856 5854 5852 5850 5847 5844 5842 5839 5836 5833 5830 5827 5824 5821 5817 5812 5808 5805 5800
5860 5861 5862 5864 5864 5865 5866 5866 5867 5867 5868 5868 5868 5868 5868 5868 5868 5868 5868 5867 5868 5866 5864 5863 5862 5860 5858 5856 5854 5852 5849 5847 5844 5841 5838 5835 5833 5829 5826 5823 5820 5817 5814 5811 5805 5802 5798
5860 5861 5862 5863 5864 5865 5865 5866 5866 5866 5866 5866 5867 5867 5867 5867 5867 5866 5866 5865 5864 5864 5863 5861 5859 5858 5856 5853 5851 5848 5847 5844 5841 5838 5835 5833 5828 5825 5822 5819 5816 5813 5810 5806 5803 5797 5793
5860 5861 5862 5862 5863 5863 5864 5865 5865 5865 5865 5865 5865 5865 5865 5864 5864 5864 5863 5862 5862 5860 5860 5859 5857 5855 5853 5851 5848 5846 5843 5840 5837 5834 5831 5828 5825 5822 5818 5815 5811 5806 5803 5800 5797 5794 5789
5859 5860 5860 5861 5862 5863 5863 5864 5864 5864 5864 5864 5863 5863 5863 5862 5863 5862 5861 5860 5859 5858 5857 5857 5854 5852 5850 5847 5845 5842 5839 5837 5834 5831 5827 5825 5821 5817 5814 5810 5807 5803 5799 5795 5791 5788 5785
5857 5858 5859 5859 5860 5860 5861 5861 5862 5862 5862 5862 5862 5861 5860 5860 5859 5858 5858 5856 5855 5854 5852 5852 5849 5847 5845 5844 5841 5838 5835 5832 5829 5826 5824 5820 5816 5812 5808 5805 5801 5797 5793 5788 5784 5780 5778
5853 5854 5856 5857 5858 5858 5858 5858 5859 5859 5859 5859 5858 5858 5857 5857 5856 5855 5854 5852 5851 5851 5848 5847 5845 5842 5841 5838 5836 5833 5831 5828 5824 5821 5818 5814 5811 5807 5803 5798 5795 5791 5788 5782 5778 5772 5768
5848 5850 5851 5852 5853 5854 5855 5855 5855 5855 5854 5854 5854 5854 5854 5852 5852 5851 5849 5849 5848 5845 5844 5842 5839 5837 5835 5833 5831 5828 5825 5822 5819 5815 5812 5808 5805 5800 5797 5793 5788 5784 5780 5774 5769 5764 5760
5844 5846 5846 5847 5848 5849 5849 5849 5849 5849 5849 5849 5849 5849 5848 5847 5846 5845 5844 5844 5842 5839 5837 5835 5833 5831 5829 5826 5824 5821 5818 5816 5812 5809 5804 5801 5798 5794 5791 5785 5780 5776 5772 5767 5761 5756 5753
5838 5840 5841 5842 5843 5844 5844 5844 5844 5844 5844 5844 5844 5843 5843 5841 5840 5839 5839 5837 5835 5833 5831 5829 5827 5824 5823 5820 5817 5814 5812 5809 5805 5801 5798 5792 5789 5787 5783 5777 5774 5767 5763 5759 5753 5749 5744
5832 5833 5835 5836 5837 5837 5838 5837 5837 5837 5837 5837 5838 5838 5837 5835 5833 5832 5832 5829 5827 5825 5823 5821 5819 5817 5815 5813 5810 5806 5804 5801 5796 5793 5789 5785 5779 5779 5775 5770 5767 5761 5756 5749 5744 5737 5733
5824 5825 5827 5829 5830 5830 5830 5830 5830 5830 5830 5830 5830 5829 5829 5827 5826 5825 5823 5822 5819 5817 5815 5814 5811 5808 5807 5804 5801 5797 5795 5791 5786 5784 5780 5775 5771 5770 5765 5761 5757 5752 5745 5739 5736 5729 5718
5815 5816 5818 5820 5821 5821 5821 5822 5822 5822 5822 5821 5821 5821 5820 5818 5819 5816 5815 5813 5812 5810 5807 5804 5802 5800 5797 5794 5791 5788 5786 5782 5776 5774 5770 5766 5760 5758 5755 5752 5748 5742 5735 5728 5724 5718 5707
5805 5807 5808 5810 5811 5811 5812 5813 5813 5814 5813 5813 5812 5811 5811 5809 5808 5806 5805 5803 5801 5801 5798 5795 5793 5791 5788 5784 5780 5778 5776 5772 5767 5764 5759 5755 5750 5748 5743 5742 5737 5728 5723 5717 5711 5704 5701
5794 5795 5797 5798 5800 5800 5801 5802 5802 5802 5802 5802 5801 5801 5801 5799 5797 5795 5794 5793 5792 5791 5788 5784 5782 5780 5777 5773 5771 5767 5763 5760 5757 5753 5748 5744 5741 5738 5733 5730 5726 5717 5711 5708 5700 5692 5688
5782 5784 5785 5786 5787 5788 5788 5790 5790 5790 5790 5790 5789 5788 5788 5787 5786 5785 5783 5782 5781 5778 5776 5774 5772 5770 5764 5762 5761 5756 5754 5749 5745 5741 5737 5732 5728 5725 5721 5719 5714 5707 5702 5698 5690 5685 5673
5769 5771 5772 5774 5775 5776 5777 5777 5777 5778 5778 5777 5775 5775 5775 5774 5773 5772 5770 5771 5769 5766 5762 5761 5759 5756 5753 5751 5747 5744 5741 5738 5736 5732 5726 5722 5715 5711 5710 5706 5700 5695 5695 5687 5680 5672 5663
5753 5755 5758 5760 5762 5762 5764 5765 5765 5765 5765 5763 5763 5760 5758 5760 5759 5758 5758 5758 5755 5752 5751 5747 5745 5743 5740 5738 5734 5733 5730 5727 5723 5720 5714 5706 5701 5695 5692 5690 5685 5684 5681 5675 5670 5664 5652
5739 5740 5742 5745 5746 5746 5747 5749 5749 5749 5750 5750 5749 5746 5745 5745 5744 5744 5742 5741 5741 5738 5737 5736 5732 5729 5728 5723 5721 5719 5718 5715 5711 5708 5701 5694 5689 5681 5677 5673 5671 5670 5666 5659 5653 5653 5641
5725 5727 5728 5730 5732 5733 5732 5733 5733 5734 5734 5734 5736 5734 5733 5733 5733 5732 5728 5727 5726 5725 5724 5721 5720 5716 5713 5711 5706 5704 5704 5701 5700 5696 5689 5683 5677 5670 5663 5659 5655 5662 5650 5645 5637 5640 5629
5710 5712 5714 5715 5716 5718 5719 5720 5721 5721 5720 5720 5720 5719 5719 5719 5723 5718 5717 5716 5715 5713 5712 5709 5706 5702 5700 5696 5693 5688 5687 5685 5683 5680 5679 5673 5666 5661 5652 5644 5638 5637 5634 5628 5620 5617 5613
5692 5695 5698 5700 5701 5702 5703 5704 5705 5705 5705 5704 5706 5705 5703 5703 5707 5705 5703 5702 5701 5699 5699 5697 5694 5692 5687 5684 5679 5676 5673 5671 5667 5665 5663 5658 5651 5646 5639 5630 5628 5623 5617 5611 5607 5601 5595
5675 5677 5680 5683 5684 5686 5687 5688 5689 5689 5688 5686 5690 5690 5689 5688 5689 5690 5690 5688 5686 5686 5684 5684 5681 5680 5674 5671 5667 5664 5660 5657 5652 5650 5646 5643 5637 5633 5625 5618 5613 5610 5603 5599 5591 5583 5578
5656 5659 5661 5665 5667 5668 5670 5671 5672 5672 5671 5670 5675 5676 5672 5670 5676 5675 5676 5676 5674 5672 5669 5667 5668 5664 5660 5655 5652 5648 5646 5640 5638 5636 5635 5630 5625 5619 5614 5605 5598 5592 5587 5581 5575 5569 5562